Wind_Speed
46 45 45 45 46 48 48 45 47 50 51 46 44 42 43 43 40 38 37 35 34 32 31 29 25 24 26 26 24 23 21 22 22 22 20 19 19 20 21 21 21 20 19
41 40 39 40 41 42 42 42 45 52 51 38 35 38 35 38 43 42 43 41 36 34 33 31 28 29 29 28 27 25 25 25 26 26 24 22 20 19 21 23 24 23 22
34 32 32 33 34 34 35 37 40 41 35 32 33 33 28 28 28 34 42 43 40 37 34 33 30 30 33 33 31 30 29 29 30 30 29 28 25 23 22 24 26 28 28
31 31 31 30 31 31 35 37 38 39 35 31 33 33 29 33 28 31 34 37 38 38 36 33 31 31 33 35 34 32 33 33 33 34 34 32 30 27 26 26 26 27 29
28 28 28 28 30 31 33 36 37 37 33 31 32 31 29 30 30 31 29 31 35 37 37 37 32 32 31 33 35 35 36 38 37 38 38 37 34 31 30 28 27 27 28
25 24 25 26 27 30 32 36 38 37 33 30 29 28 28 28 28 30 28 28 31 36 39 41 34 33 32 34 36 36 38 40 42 42 43 41 38 36 33 31 29 27 28
20 21 21 21 23 26 30 34 38 39 36 33 31 29 28 27 27 27 29 30 31 35 40 41 36 35 33 34 35 34 38 40 43 45 46 43 39 38 36 34 32 30 29
17 17 17 19 22 26 28 32 36 38 37 36 35 33 29 28 26 26 29 32 34 35 37 38 37 35 36 34 32 35 40 42 43 44 43 41 41 41 40 37 35 32 31
17 16 16 18 22 26 30 33 36 37 37 36 36 34 32 29 29 27 27 30 33 35 34 32 33 33 33 33 32 36 38 40 41 41 42 42 42 41 43 43 39 36 33
16 17 17 19 23 25 29 32 35 35 35 35 36 35 34 31 31 29 28 28 29 31 33 33 33 33 32 35 37 37 36 36 38 40 43 43 44 43 44 46 43 41 37
21 20 21 22 24 26 29 31 30 32 34 34 34 35 34 33 32 32 30 30 31 33 34 34 34 33 35 37 38 37 36 33 34 38 39 38 42 44 45 45 45 45 41
24 21 21 23 23 26 30 32 32 32 33 32 31 32 34 35 34 34 34 32 31 33 35 37 36 34 36 37 38 39 37 35 36 38 38 37 38 42 45 48 49 50 46
27 23 21 23 25 27 30 33 33 32 31 29 29 30 32 34 36 37 36 35 36 36 38 40 39 37 36 37 38 38 37 34 34 35 36 34 34 35 38 38 47 53 50
31 25 23 24 26 28 30 33 32 30 29 29 28 30 31 34 37 37 37 37 37 37 36 37 39 38 37 37 39 38 37 36 37 35 32 32 31 31 34 34 37 47 50
30 25 24 26 26 26 29 31 31 29 28 27 28 30 31 33 36 36 37 38 37 35 34 34 34 34 35 36 37 37 38 36 36 32 31 31 29 26 31 38 42 45 49
29 25 23 24 24 25 28 30 31 31 28 26 25 27 30 31 34 34 34 35 35 33 32 33 33 35 36 36 35 33 31 28 27 28 31 28 24 25 24 28 37 42 43
28 27 23 23 24 26 28 29 31 31 30 26 24 25 27 28 30 31 32 32 33 34 35 34 35 34 33 35 36 33 29 27 25 25 23 21 24 25 23 20 25 37 41
26 27 32 30 30 30 29 28 29 31 31 27 23 24 24 24 26 29 30 30 31 31 31 32 35 34 34 35 34 30 29 26 25 26 23 22 24 24 25 28 30 32 35
33 35 39 37 35 33 31 29 27 29 28 28 26 24 22 21 22 23 24 25 27 29 30 31 35 34 33 29 22 26 28 25 23 24 23 23 24 24 22 21 20 25 32
39 42 43 41 38 34 30 27 27 26 25 26 26 24 21 18 15 14 15 19 25 30 30 28 32 32 32 29 25 25 25 23 22 23 22 22 20 18 16 16 19 21 24
54 50 46 44 42 38 33 29 29 27 26 27 25 25 21 14 10 13 14 16 22 27 25 30 32 26 24 25 24 22 21 21 19 18 18 18 17 17 18 19 20 21 23
77 65 50 47 45 41 37 35 31 30 28 28 27 24 22 16 17 14 16 18 21 25 22 25 27 26 28 27 23 20 19 18 17 17 16 16 16 17 19 21 22 23 25
74 62 50 46 43 41 40 39 36 32 29 28 27 23 22 18 17 14 14 17 21 24 29 28 25 23 25 24 19 18 18 16 15 14 14 15 15 15 16 17 19 21 24
72 62 51 51 50 46 41 40 38 35 32 28 28 23 20 18 15 16 14 16 21 25 25 25 24 18 16 15 18 18 16 15 14 13 12 12 12 12 14 16 19 21 23
75 65 57 49 51 52 48 44 41 38 36 32 30 26 20 18 16 17 18 18 17 18 23 25 24 22 19 19 18 16 14 13 12 11 10 11 11 11 12 14 17 19 21
68 67 64 53 49 50 50 47 44 40 39 34 31 29 24 21 18 16 16 16 18 20 20 19 21 23 21 19 17 14 13 12 10 10 9 9 9 10 11 14 15 18 20
Wind_Direction
276 278 280 280 279 277 275 272 268 263 264 272 271 275 277 260 259 265 262 254 249 248 248 249 248 249 252 254 254 251 248 245 242 240 239 240 241 241 243 244 244 245 247
280 282 282 281 281 280 282 280 276 268 261 271 274 276 278 272 267 259 257 253 247 244 245 248 250 249 250 251 251 252 251 249 248 246 243 240 240 239 242 246 245 245 246
281 284 284 285 285 284 284 287 285 285 279 279 281 287 284 278 290 279 262 257 252 245 242 243 244 245 249 253 252 252 253 252 248 247 245 243 242 242 243 245 244 245 247
288 292 294 294 294 293 293 291 287 289 294 288 280 276 271 273 275 275 263 255 249 243 240 240 240 243 248 251 251 250 252 254 252 249 247 245 243 243 242 244 245 244 245
294 299 300 301 301 300 297 294 293 291 291 286 279 275 272 267 262 267 263 250 241 240 246 247 241 241 244 243 246 251 254 253 252 252 250 248 245 244 245 246 246 245 244
293 296 298 301 301 300 297 292 289 288 287 283 279 276 271 266 264 264 260 251 244 245 252 254 249 245 240 239 244 248 253 253 250 250 250 248 247 244 242 245 245 244 245
295 298 300 305 305 302 296 290 286 282 280 277 276 273 270 267 264 262 259 254 248 247 250 253 249 249 248 244 245 245 249 252 252 252 252 250 248 246 242 240 243 242 243
305 307 311 319 322 317 307 294 286 281 276 271 269 266 266 265 264 261 256 252 249 248 249 248 248 248 251 252 249 248 252 254 253 253 254 251 248 248 244 241 241 243 243
303 314 316 325 327 326 321 308 293 285 279 274 270 267 263 262 262 262 261 257 252 252 252 251 253 254 254 255 256 258 260 260 256 250 252 253 250 248 244 242 239 241 243
291 294 304 321 328 328 328 319 295 288 283 276 270 268 266 262 259 261 262 260 257 255 256 256 258 258 257 258 263 264 263 262 259 252 252 252 251 250 248 245 237 237 240
285 293 296 306 326 332 331 329 309 291 285 278 272 267 266 265 261 257 260 264 261 258 256 256 257 256 256 259 261 263 263 258 259 256 252 254 254 250 250 247 238 233 234
287 299 309 307 319 330 334 330 319 299 287 281 275 268 265 264 263 258 255 259 263 260 258 258 258 257 258 258 259 260 259 258 259 257 253 257 255 253 258 252 238 231 229
279 289 299 304 310 319 331 333 324 308 290 282 277 270 267 265 263 261 259 257 260 263 261 258 259 260 262 260 258 257 256 254 257 260 254 252 257 265 261 255 238 231 228
271 278 291 301 307 314 322 330 327 314 302 288 282 273 267 267 265 262 261 260 262 265 264 261 261 261 261 261 258 255 254 254 253 258 252 254 266 270 258 250 236 230 227
277 284 294 300 302 308 315 321 329 318 309 303 287 276 268 267 265 263 261 260 263 264 265 262 261 262 263 262 256 250 251 255 256 256 252 256 266 271 269 252 235 225 224
280 285 287 289 294 302 310 314 322 324 313 307 298 284 276 271 266 262 260 259 259 260 262 264 264 262 261 255 245 243 241 242 244 238 238 248 255 256 258 258 253 238 229
275 279 282 288 294 304 310 311 314 321 319 312 306 297 281 270 264 259 258 259 259 258 258 260 260 257 250 245 235 233 224 237 243 238 244 258 257 251 243 254 259 245 232
272 288 295 291 291 295 303 308 309 314 318 316 311 303 293 277 267 260 257 257 259 260 257 250 249 245 241 242 230 224 230 243 234 235 246 261 258 253 251 251 252 247 243
267 284 295 292 291 294 296 297 303 308 312 314 311 308 304 293 279 267 255 251 250 247 243 241 240 236 234 230 226 222 231 234 239 250 261 259 255 254 252 252 252 251 248
273 283 288 287 287 290 295 293 297 301 303 307 309 306 309 300 277 265 255 244 240 235 227 232 223 219 221 220 224 223 230 236 243 251 252 247 247 249 254 257 259 257 255
281 282 282 278 278 283 288 286 287 290 296 299 303 304 307 292 284 263 261 250 243 231 229 224 217 209 203 219 226 230 230 232 233 238 238 241 246 252 256 257 258 259 260
283 280 276 272 270 272 276 280 278 276 285 289 295 299 298 290 297 281 263 259 254 252 233 212 203 200 214 218 217 223 225 224 228 233 238 244 248 252 253 255 258 260 262
278 276 268 264 265 267 271 275 277 269 272 278 283 290 291 293 285 270 254 253 249 238 220 208 214 217 212 208 206 216 222 225 230 235 243 250 254 261 269 274 276 276 276
268 265 261 262 262 262 265 269 272 266 263 266 270 276 280 278 266 250 248 251 245 239 236 235 229 213 206 206 211 213 214 219 225 232 245 259 267 275 283 284 285 285 286
262 260 257 257 252 254 256 260 261 260 261 258 258 261 265 263 253 248 250 254 250 247 244 231 202 193 204 212 211 207 208 211 219 234 249 265 277 287 291 294 299 301 301
246 246 245 236 239 243 247 248 251 252 252 251 250 251 253 250 242 238 236 233 233 230 223 213 204 199 197 201 204 203 208 217 226 239 253 271 287 299 310 314 316 313 311
Height
5870 5869 5868 5865 5863 5861 5860 5861 5859 5857 5859 5860 5860 5861 5860 5862 5862 5863 5863 5862 5862 5863 5864 5864 5865 5867 5868 5869 5870 5871 5872 5872 5873 5874 5875 5875 5876 5878 5879 5879 5880 5880 5881
5862 5861 5859 5856 5853 5851 5851 5850 5846 5846 5848 5851 5852 5852 5853 5850 5851 5852 5854 5854 5853 5855 5858 5858 5859 5860 5862 5864 5865 5866 5868 5868 5869 5869 5870 5871 5872 5873 5874 5875 5876 5877 5877
5855 5853 5851 5849 5847 5845 5844 5842 5838 5838 5840 5841 5843 5844 5844 5843 5841 5841 5842 5844 5845 5847 5849 5851 5852 5853 5855 5857 5858 5860 5861 5861 5863 5863 5864 5866 5868 5869 5870 5870 5871 5873 5874
5849 5847 5845 5843 5841 5840 5838 5835 5831 5830 5832 5833 5836 5837 5837 5835 5833 5832 5831 5832 5834 5836 5839 5842 5843 5844 5847 5849 5851 5852 5853 5854 5854 5856 5858 5859 5861 5864 5865 5865 5866 5867 5869
5842 5841 5839 5837 5835 5833 5830 5827 5824 5822 5823 5825 5826 5827 5826 5825 5824 5823 5822 5822 5824 5828 5831 5833 5835 5836 5838 5841 5842 5843 5844 5845 5846 5848 5850 5851 5854 5856 5858 5859 5861 5862 5863
5837 5836 5834 5832 5829 5826 5823 5820 5818 5816 5816 5816 5815 5817 5817 5817 5816 5816 5816 5815 5817 5820 5823 5824 5825 5827 5830 5832 5834 5834 5834 5836 5837 5839 5840 5843 5846 5849 5851 5853 5854 5856 5857
5831 5829 5827 5825 5822 5819 5816 5813 5810 5809 5809 5808 5807 5808 5810 5810 5811 5811 5809 5808 5810 5813 5814 5815 5816 5818 5820 5824 5825 5825 5825 5826 5827 5828 5830 5832 5836 5840 5844 5846 5848 5849 5851
5825 5823 5820 5817 5814 5811 5808 5805 5802 5800 5800 5800 5800 5800 5802 5803 5805 5804 5802 5801 5802 5803 5804 5806 5807 5809 5811 5814 5816 5816 5817 5817 5819 5820 5821 5823 5826 5831 5835 5838 5840 5842 5844
5819 5816 5813 5811 5807 5804 5800 5797 5793 5790 5789 5790 5790 5791 5793 5795 5796 5796 5795 5795 5795 5795 5796 5797 5800 5801 5802 5805 5806 5807 5808 5808 5810 5813 5814 5814 5817 5820 5823 5828 5831 5834 5836
5812 5810 5807 5805 5802 5799 5795 5791 5785 5782 5780 5781 5780 5782 5784 5785 5786 5787 5788 5788 5788 5789 5790 5790 5793 5794 5795 5797 5798 5799 5800 5800 5801 5802 5805 5806 5808 5811 5813 5817 5821 5825 5828
5805 5803 5800 5798 5795 5791 5787 5783 5778 5774 5771 5771 5771 5772 5774 5776 5777 5778 5780 5780 5781 5782 5783 5784 5785 5786 5787 5789 5789 5790 5790 5790 5791 5793 5795 5798 5799 5801 5802 5805 5809 5814 5818
5799 5796 5793 5790 5788 5784 5781 5776 5770 5766 5764 5763 5763 5763 5764 5766 5768 5769 5771 5773 5774 5774 5774 5774 5776 5777 5778 5779 5780 5780 5781 5782 5782 5784 5787 5789 5789 5791 5792 5793 5797 5803 5808
5792 5789 5786 5784 5780 5777 5774 5769 5764 5759 5757 5756 5755 5755 5755 5756 5758 5759 5762 5764 5764 5765 5765 5766 5767 5768 5769 5769 5771 5772 5773 5774 5775 5776 5778 5780 5782 5783 5783 5783 5785 5791 5797
5784 5781 5778 5775 5772 5769 5767 5763 5758 5754 5751 5749 5747 5745 5745 5745 5747 5749 5751 5753 5754 5755 5757 5758 5758 5759 5759 5759 5761 5763 5765 5766 5767 5768 5771 5773 5774 5776 5776 5777 5778 5781 5787
5774 5771 5768 5767 5765 5762 5760 5756 5753 5749 5744 5740 5738 5737 5736 5736 5737 5739 5741 5743 5745 5746 5748 5749 5749 5749 5749 5750 5751 5754 5756 5758 5759 5761 5764 5765 5766 5767 5769 5770 5771 5772 5776
5764 5762 5760 5758 5756 5753 5751 5749 5746 5742 5737 5735 5732 5729 5727 5726 5727 5729 5731 5733 5735 5737 5739 5740 5741 5740 5740 5741 5742 5745 5748 5750 5751 5755 5756 5758 5759 5760 5761 5764 5764 5765 5768
5755 5754 5751 5749 5747 5745 5743 5740 5738 5736 5731 5728 5725 5721 5718 5717 5717 5719 5721 5724 5726 5729 5730 5731 5730 5731 5732 5731 5734 5737 5741 5743 5746 5748 5751 5753 5755 5754 5754 5755 5757 5759 5761
5742 5742 5743 5740 5738 5736 5735 5733 5731 5730 5726 5721 5718 5714 5712 5710 5708 5709 5710 5713 5716 5718 5719 5720 5720 5722 5723 5722 5725 5729 5735 5739 5740 5742 5745 5747 5748 5749 5749 5751 5752 5754 5757
5728 5729 5730 5730 5729 5728 5726 5725 5723 5722 5720 5716 5711 5708 5705 5702 5701 5700 5701 5703 5705 5707 5709 5711 5711 5713 5716 5718 5721 5725 5730 5733 5735 5737 5739 5741 5743 5744 5745 5746 5748 5749 5752
5715 5715 5717 5718 5718 5718 5716 5715 5714 5714 5713 5711 5706 5703 5700 5697 5695 5696 5696 5697 5697 5697 5699 5703 5704 5706 5711 5714 5716 5720 5724 5727 5729 5732 5734 5736 5737 5739 5740 5741 5743 5745 5747
5699 5701 5703 5706 5706 5706 5706 5705 5705 5705 5705 5705 5702 5698 5695 5693 5692 5693 5692 5693 5693 5693 5695 5697 5701 5702 5706 5707 5712 5715 5718 5721 5724 5726 5729 5731 5732 5734 5735 5735 5737 5739 5740
5680 5683 5687 5690 5692 5694 5696 5696 5695 5695 5696 5697 5696 5693 5691 5689 5688 5688 5689 5689 5690 5689 5690 5692 5695 5698 5702 5705 5707 5711 5714 5717 5720 5723 5724 5725 5726 5728 5728 5730 5731 5732 5734
5657 5663 5669 5674 5677 5678 5682 5685 5685 5684 5686 5689 5689 5687 5686 5684 5682 5683 5684 5685 5686 5686 5688 5691 5692 5694 5698 5700 5702 5706 5711 5714 5717 5719 5720 5720 5720 5721 5722 5722 5724 5725 5726
5634 5640 5647 5655 5661 5664 5667 5672 5675 5675 5675 5679 5682 5680 5680 5679 5677 5678 5680 5681 5682 5683 5685 5687 5689 5693 5696 5698 5702 5704 5707 5711 5714 5715 5716 5716 5715 5715 5716 5716 5717 5717 5717
5603 5613 5625 5637 5640 5648 5652 5656 5661 5663 5665 5669 5674 5674 5673 5673 5672 5672 5675 5677 5677 5678 5680 5682 5684 5688 5693 5698 5700 5702 5705 5708 5710 5711 5712 5712 5712 5711 5711 5711 5710 5710 5709
5574 5585 5599 5616 5625 5625 5633 5640 5645 5649 5654 5658 5663 5665 5666 5667 5667 5667 5669 5671 5674 5676 5678 5680 5683 5686 5690 5694 5698 5700 5703 5705 5706 5707 5708 5708 5708 5707 5706 5704 5704 5704 5703